Year,Month,Day,Hour,Minute,Value (Times are PST for temperature in C)
2014,08,26,00,00,17.60
2014,08,26,00,01,17.60
2014,08,26,00,02,17.60
2014,08,26,00,03,17.60
2014,08,26,00,04,17.50
2014,08,26,00,05,17.50
2014,08,26,00,06,17.50
2014,08,26,00,07,17.50
2014,08,26,00,08,17.50
2014,08,26,00,09,17.50
2014,08,26,00,10,17.50
2014,08,26,00,11,17.50
2014,08,26,00,12,17.50
2014,08,26,00,13,17.50
2014,08,26,00,14,17.50
2014,08,26,00,15,17.50
2014,08,26,00,16,17.50
2014,08,26,00,17,17.40
2014,08,26,00,18,17.40
2014,08,26,00,19,17.40
2014,08,26,00,20,17.30
2014,08,26,00,21,17.30
2014,08,26,00,22,17.30
2014,08,26,00,23,17.30
2014,08,26,00,24,17.20
2014,08,26,00,25,17.20
2014,08,26,00,26,17.20
2014,08,26,00,27,17.20
2014,08,26,00,28,17.20
2014,08,26,00,29,17.20
2014,08,26,00,30,17.20
2014,08,26,00,31,17.20
2014,08,26,00,32,17.20
2014,08,26,00,33,17.20
2014,08,26,00,34,17.20
2014,08,26,00,35,17.20
2014,08,26,00,36,17.20
2014,08,26,00,37,17.20
2014,08,26,00,38,17.20
2014,08,26,00,39,17.20
2014,08,26,00,40,17.20
2014,08,26,00,41,17.20
2014,08,26,00,42,17.20
2014,08,26,00,43,17.20
2014,08,26,00,44,17.20
2014,08,26,00,45,17.20
2014,08,26,00,46,17.20
2014,08,26,00,47,17.20
2014,08,26,00,48,17.10
2014,08,26,00,49,17.10
2014,08,26,00,50,17.10
2014,08,26,00,51,17.10
2014,08,26,00,52,17.10
2014,08,26,00,53,17.00
2014,08,26,00,54,17.00
2014,08,26,00,55,16.90
2014,08,26,00,56,16.90
2014,08,26,00,57,16.90
2014,08,26,00,58,16.90
2014,08,26,00,59,16.80
2014,08,26,01,00,16.80
2014,08,26,01,01,16.80
2014,08,26,01,02,16.80
2014,08,26,01,03,16.80
2014,08,26,01,04,16.80
2014,08,26,01,05,16.80
2014,08,26,01,06,16.80
2014,08,26,01,07,16.80
2014,08,26,01,08,16.80
2014,08,26,01,09,16.80
2014,08,26,01,10,16.80
2014,08,26,01,11,16.80
2014,08,26,01,12,16.80
2014,08,26,01,13,16.80
2014,08,26,01,14,16.80
2014,08,26,01,15,16.80
2014,08,26,01,16,16.80
2014,08,26,01,17,16.80
2014,08,26,01,18,16.70
2014,08,26,01,19,16.80
2014,08,26,01,20,16.80
2014,08,26,01,21,16.80
2014,08,26,01,22,16.80
2014,08,26,01,23,16.80
2014,08,26,01,24,16.80
2014,08,26,01,25,16.80
2014,08,26,01,26,16.80
2014,08,26,01,27,16.80
2014,08,26,01,28,16.70
2014,08,26,01,29,16.70
2014,08,26,01,30,16.70
2014,08,26,01,31,16.70
2014,08,26,01,32,16.70
2014,08,26,01,33,16.70
2014,08,26,01,34,16.70
2014,08,26,01,35,16.70
2014,08,26,01,36,16.70
2014,08,26,01,37,16.70
2014,08,26,01,38,16.70
2014,08,26,01,39,16.70
2014,08,26,01,40,16.60
2014,08,26,01,41,16.60
2014,08,26,01,42,16.60
2014,08,26,01,43,16.60
2014,08,26,01,44,16.60
2014,08,26,01,45,16.60
2014,08,26,01,46,16.60
2014,08,26,01,47,16.60
2014,08,26,01,48,16.50
2014,08,26,01,49,16.50
2014,08,26,01,50,16.50
2014,08,26,01,51,16.50
2014,08,26,01,52,16.40
2014,08,26,01,53,16.40
2014,08,26,01,54,16.40
2014,08,26,01,55,16.40
2014,08,26,01,56,16.40
2014,08,26,01,57,16.40
2014,08,26,01,58,16.40
2014,08,26,01,59,16.30
2014,08,26,02,00,16.30
2014,08,26,02,01,16.30
2014,08,26,02,02,16.30
2014,08,26,02,03,16.30
2014,08,26,02,04,16.30
2014,08,26,02,05,16.30
2014,08,26,02,06,16.30
2014,08,26,02,07,16.30
2014,08,26,02,08,16.30
2014,08,26,02,09,16.30
2014,08,26,02,10,16.30
2014,08,26,02,11,16.30
2014,08,26,02,12,16.30
2014,08,26,02,13,16.30
2014,08,26,02,14,16.30
2014,08,26,02,15,16.30
2014,08,26,02,16,16.30
2014,08,26,02,17,16.30
2014,08,26,02,18,16.30
2014,08,26,02,19,16.30
2014,08,26,02,20,16.20
2014,08,26,02,21,16.20
2014,08,26,02,22,16.20
2014,08,26,02,23,16.20
2014,08,26,02,24,16.20
2014,08,26,02,25,16.20
2014,08,26,02,26,16.20
2014,08,26,02,27,16.10
2014,08,26,02,28,16.10
2014,08,26,02,29,16.10
2014,08,26,02,30,16.10
2014,08,26,02,31,16.10
2014,08,26,02,32,16.10
2014,08,26,02,33,16.10
2014,08,26,02,34,16.10
2014,08,26,02,35,16.10
2014,08,26,02,36,16.10
2014,08,26,02,37,16.10
2014,08,26,02,38,16.10
2014,08,26,02,39,16.10
2014,08,26,02,40,16.10
2014,08,26,02,41,16.10
2014,08,26,02,42,16.10
2014,08,26,02,43,16.00
2014,08,26,02,44,16.00
2014,08,26,02,45,16.00
2014,08,26,02,46,16.00
2014,08,26,02,47,16.00
2014,08,26,02,48,16.00
2014,08,26,02,49,15.90
2014,08,26,02,50,15.90
2014,08,26,02,51,15.90
2014,08,26,02,52,15.90
2014,08,26,02,53,15.90
2014,08,26,02,54,15.90
2014,08,26,02,55,15.90
2014,08,26,02,56,15.90
2014,08,26,02,57,15.90
2014,08,26,02,58,15.90
2014,08,26,02,59,15.80
2014,08,26,03,00,15.80
2014,08,26,03,01,15.80
2014,08,26,03,02,15.80
2014,08,26,03,03,15.80
2014,08,26,03,04,15.80
2014,08,26,03,05,15.80
2014,08,26,03,06,15.80
2014,08,26,03,07,15.80
2014,08,26,03,08,15.80
2014,08,26,03,09,15.80
2014,08,26,03,10,15.80
2014,08,26,03,11,15.80
2014,08,26,03,12,15.80
2014,08,26,03,13,15.80
2014,08,26,03,14,15.80
2014,08,26,03,15,15.80
2014,08,26,03,16,15.80
2014,08,26,03,17,15.80
2014,08,26,03,18,15.80
2014,08,26,03,19,15.80
2014,08,26,03,20,15.80
2014,08,26,03,21,15.80
2014,08,26,03,22,15.80
2014,08,26,03,23,15.80
2014,08,26,03,24,15.80
2014,08,26,03,25,15.80
2014,08,26,03,26,15.70
2014,08,26,03,27,15.70
2014,08,26,03,28,15.70
2014,08,26,03,29,15.70
2014,08,26,03,30,15.70
2014,08,26,03,31,15.70
2014,08,26,03,32,15.70
2014,08,26,03,33,15.70
2014,08,26,03,34,15.70
2014,08,26,03,35,15.60
2014,08,26,03,36,15.60
2014,08,26,03,37,15.60
2014,08,26,03,38,15.60
2014,08,26,03,39,15.60
2014,08,26,03,40,15.60
2014,08,26,03,41,15.60
2014,08,26,03,42,15.60
2014,08,26,03,43,15.60
2014,08,26,03,44,15.60
2014,08,26,03,45,15.60
2014,08,26,03,46,15.60
2014,08,26,03,47,15.60
2014,08,26,03,48,15.60
2014,08,26,03,49,15.60
2014,08,26,03,50,15.50
2014,08,26,03,51,15.60
2014,08,26,03,52,15.60
2014,08,26,03,53,15.60
2014,08,26,03,54,15.60
2014,08,26,03,55,15.60
2014,08,26,03,56,15.60
2014,08,26,03,57,15.60
2014,08,26,03,58,15.60
2014,08,26,03,59,15.70
2014,08,26,04,00,15.70
2014,08,26,04,01,15.70
2014,08,26,04,02,15.70
2014,08,26,04,03,15.70
2014,08,26,04,04,15.70
2014,08,26,04,05,15.70
2014,08,26,04,06,15.70
2014,08,26,04,07,15.70
2014,08,26,04,08,15.70
2014,08,26,04,09,15.70
2014,08,26,04,10,15.70
2014,08,26,04,11,15.70
2014,08,26,04,12,15.70
2014,08,26,04,13,15.70
2014,08,26,04,14,15.70
2014,08,26,04,15,15.60
2014,08,26,04,16,15.60
2014,08,26,04,17,15.60
2014,08,26,04,18,15.60
2014,08,26,04,19,15.60
2014,08,26,04,20,15.60
2014,08,26,04,21,15.60
2014,08,26,04,22,15.60
2014,08,26,04,23,15.60
2014,08,26,04,24,15.70
2014,08,26,04,25,15.70
2014,08,26,04,26,15.60
2014,08,26,04,27,15.60
2014,08,26,04,28,15.60
2014,08,26,04,29,15.60
2014,08,26,04,30,15.60
2014,08,26,04,31,15.60
2014,08,26,04,32,15.60
2014,08,26,04,33,15.60
2014,08,26,04,34,15.60
2014,08,26,04,35,15.60
2014,08,26,04,36,15.60
2014,08,26,04,37,15.60
2014,08,26,04,38,15.50
2014,08,26,04,39,15.50
2014,08,26,04,40,15.40
2014,08,26,04,41,15.40
2014,08,26,04,42,15.40
2014,08,26,04,43,15.40
2014,08,26,04,44,15.30
2014,08,26,04,45,15.30
2014,08,26,04,46,15.20
2014,08,26,04,47,15.20
2014,08,26,04,48,15.10
2014,08,26,04,49,15.10
2014,08,26,04,50,15.10
2014,08,26,04,51,15.10
2014,08,26,04,52,15.00
2014,08,26,04,53,15.00
2014,08,26,04,54,15.00
2014,08,26,04,55,15.00
2014,08,26,04,56,15.00
2014,08,26,04,57,15.00
2014,08,26,04,58,15.00
2014,08,26,04,59,15.00
2014,08,26,05,00,15.00
2014,08,26,05,01,15.00
2014,08,26,05,02,15.00
2014,08,26,05,03,15.00
2014,08,26,05,04,15.00
2014,08,26,05,05,15.10
2014,08,26,05,06,15.10
2014,08,26,05,07,15.10
2014,08,26,05,08,15.10
2014,08,26,05,09,15.10
2014,08,26,05,10,15.10
2014,08,26,05,11,15.10
2014,08,26,05,12,15.10
2014,08,26,05,13,15.10
2014,08,26,05,14,15.10
2014,08,26,05,15,15.10
2014,08,26,05,16,15.10
2014,08,26,05,17,15.10
2014,08,26,05,18,15.10
2014,08,26,05,19,15.10
2014,08,26,05,20,15.10
2014,08,26,05,21,15.10
2014,08,26,05,22,15.10
2014,08,26,05,23,15.10
2014,08,26,05,24,15.00
2014,08,26,05,25,15.00
2014,08,26,05,26,15.00
2014,08,26,05,27,14.90
2014,08,26,05,28,14.90
2014,08,26,05,29,14.90
2014,08,26,05,30,14.90
2014,08,26,05,31,14.90
2014,08,26,05,32,14.90
2014,08,26,05,33,14.80
2014,08,26,05,34,14.80
2014,08,26,05,35,14.80
2014,08,26,05,36,14.80
2014,08,26,05,37,14.80
2014,08,26,05,38,14.80
2014,08,26,05,39,14.80
2014,08,26,05,40,14.80
2014,08,26,05,41,14.80
2014,08,26,05,42,14.80
2014,08,26,05,43,14.80
2014,08,26,05,44,14.80
2014,08,26,05,45,14.70
2014,08,26,05,46,14.70
2014,08,26,05,47,14.70
2014,08,26,05,48,14.80
2014,08,26,05,49,14.80
2014,08,26,05,50,14.80
2014,08,26,05,51,14.70
2014,08,26,05,52,14.70
2014,08,26,05,53,14.70
2014,08,26,05,54,14.70
2014,08,26,05,55,14.70
2014,08,26,05,56,14.70
2014,08,26,05,57,14.70
2014,08,26,05,58,14.70
2014,08,26,05,59,14.60
2014,08,26,06,00,14.60
2014,08,26,06,01,14.60
2014,08,26,06,02,14.50
2014,08,26,06,03,14.50
2014,08,26,06,04,14.40
2014,08,26,06,05,14.40
2014,08,26,06,06,14.40
2014,08,26,06,07,14.30
2014,08,26,06,08,14.30
2014,08,26,06,09,14.30
2014,08,26,06,10,14.30
2014,08,26,06,11,14.20
2014,08,26,06,12,14.20
2014,08,26,06,13,14.20
2014,08,26,06,14,14.10
2014,08,26,06,15,14.10
2014,08,26,06,16,14.10
2014,08,26,06,17,14.10
2014,08,26,06,18,14.10
2014,08,26,06,19,14.10
2014,08,26,06,20,14.20
2014,08,26,06,21,14.20
2014,08,26,06,22,14.20
2014,08,26,06,23,14.20
2014,08,26,06,24,14.20
2014,08,26,06,25,14.30
2014,08,26,06,26,14.30
2014,08,26,06,27,14.30
2014,08,26,06,28,14.30
2014,08,26,06,29,14.30
2014,08,26,06,30,14.30
2014,08,26,06,31,14.30
2014,08,26,06,32,14.30
2014,08,26,06,33,14.30
2014,08,26,06,34,14.30
2014,08,26,06,35,14.30
2014,08,26,06,36,14.30
2014,08,26,06,37,14.30
2014,08,26,06,38,14.30
2014,08,26,06,39,14.30
2014,08,26,06,40,14.40
2014,08,26,06,41,14.40
2014,08,26,06,42,14.40
2014,08,26,06,43,14.50
2014,08,26,06,44,14.50
2014,08,26,06,45,14.50
2014,08,26,06,46,14.50
2014,08,26,06,47,14.60
2014,08,26,06,48,14.60
2014,08,26,06,49,14.60
2014,08,26,06,50,14.60
2014,08,26,06,51,14.70
2014,08,26,06,52,14.70
2014,08,26,06,53,14.70
2014,08,26,06,54,14.70
2014,08,26,06,55,14.70
2014,08,26,06,56,14.70
2014,08,26,06,57,14.80
2014,08,26,06,58,14.80
2014,08,26,06,59,14.80
2014,08,26,07,00,14.80
2014,08,26,07,01,14.80
2014,08,26,07,02,14.80
2014,08,26,07,03,14.80
2014,08,26,07,04,14.90
2014,08,26,07,05,14.90
2014,08,26,07,06,14.90
2014,08,26,07,07,15.00
2014,08,26,07,08,15.00
2014,08,26,07,09,15.00
2014,08,26,07,10,15.10
2014,08,26,07,11,15.10
2014,08,26,07,12,15.10
2014,08,26,07,13,15.20
2014,08,26,07,14,15.20
2014,08,26,07,15,15.30
2014,08,26,07,16,15.30
2014,08,26,07,17,15.40
2014,08,26,07,18,15.40
2014,08,26,07,19,15.50
2014,08,26,07,20,15.50
2014,08,26,07,21,15.60
2014,08,26,07,22,15.70
2014,08,26,07,23,15.70
2014,08,26,07,24,15.80
2014,08,26,07,25,15.80
2014,08,26,07,26,15.90
2014,08,26,07,27,16.00
2014,08,26,07,28,16.00
2014,08,26,07,29,16.10
2014,08,26,07,30,16.20
2014,08,26,07,31,16.20
2014,08,26,07,32,16.30
2014,08,26,07,33,16.30
2014,08,26,07,34,16.40
2014,08,26,07,35,16.40
2014,08,26,07,36,16.40
2014,08,26,07,37,16.50
2014,08,26,07,38,16.50
2014,08,26,07,39,16.60
2014,08,26,07,40,16.60
2014,08,26,07,41,16.70
2014,08,26,07,42,16.70
2014,08,26,07,43,16.70
2014,08,26,07,44,16.80
2014,08,26,07,45,16.80
2014,08,26,07,46,16.90
2014,08,26,07,47,16.90
2014,08,26,07,48,16.90
2014,08,26,07,49,16.90
2014,08,26,07,50,16.90
2014,08,26,07,51,16.90
2014,08,26,07,52,17.00
2014,08,26,07,53,17.00
2014,08,26,07,54,17.00
2014,08,26,07,55,17.00
2014,08,26,07,56,17.00
2014,08,26,07,57,17.00
2014,08,26,07,58,17.00
2014,08,26,07,59,17.00
2014,08,26,08,00,17.10
2014,08,26,08,01,17.10
2014,08,26,08,02,17.10
2014,08,26,08,03,17.20
2014,08,26,08,04,17.20
2014,08,26,08,05,17.20
2014,08,26,08,06,17.30
2014,08,26,08,07,17.40
2014,08,26,08,08,17.40
2014,08,26,08,09,17.50
2014,08,26,08,10,17.60
2014,08,26,08,11,17.70
2014,08,26,08,12,17.70
2014,08,26,08,13,17.80
2014,08,26,08,14,17.80
2014,08,26,08,15,17.90
2014,08,26,08,16,17.90
2014,08,26,08,17,18.00
2014,08,26,08,18,18.00
2014,08,26,08,19,18.10
2014,08,26,08,20,18.10
2014,08,26,08,21,18.20
2014,08,26,08,22,18.30
2014,08,26,08,23,18.30
2014,08,26,08,24,18.40
2014,08,26,08,25,18.40
2014,08,26,08,26,18.40
2014,08,26,08,27,18.50
2014,08,26,08,28,18.50
2014,08,26,08,29,18.50
2014,08,26,08,30,18.50
2014,08,26,08,31,18.50
2014,08,26,08,32,18.60
2014,08,26,08,33,18.60
2014,08,26,08,34,18.60
2014,08,26,08,35,18.60
2014,08,26,08,36,18.60
2014,08,26,08,37,18.60
2014,08,26,08,38,18.70
2014,08,26,08,39,18.80
2014,08,26,08,40,18.80
2014,08,26,08,41,18.90
2014,08,26,08,42,19.00
2014,08,26,08,43,19.10
2014,08,26,08,44,19.10
2014,08,26,08,45,19.20
2014,08,26,08,46,19.20
2014,08,26,08,47,19.30
2014,08,26,08,48,19.40
2014,08,26,08,49,19.50
2014,08,26,08,50,19.60
2014,08,26,08,51,19.60
2014,08,26,08,52,19.70
2014,08,26,08,53,19.70
2014,08,26,08,54,19.80
2014,08,26,08,55,19.90
2014,08,26,08,56,19.90
2014,08,26,08,57,19.90
2014,08,26,08,58,19.90
2014,08,26,08,59,19.90
2014,08,26,09,00,20.00
2014,08,26,09,01,20.00
2014,08,26,09,02,20.10
2014,08,26,09,03,20.10
2014,08,26,09,04,20.10
2014,08,26,09,05,20.10
2014,08,26,09,06,20.10
2014,08,26,09,07,20.10
2014,08,26,09,08,20.20
2014,08,26,09,09,20.20
2014,08,26,09,10,20.30
2014,08,26,09,11,20.40
2014,08,26,09,12,20.40
2014,08,26,09,13,20.50
2014,08,26,09,14,20.70
2014,08,26,09,15,20.80
2014,08,26,09,16,20.90
2014,08,26,09,17,21.00
2014,08,26,09,18,21.10
2014,08,26,09,19,21.20
2014,08,26,09,20,21.20
2014,08,26,09,21,21.20
2014,08,26,09,22,21.20
2014,08,26,09,23,21.20
2014,08,26,09,24,21.20
2014,08,26,09,25,21.10
2014,08,26,09,26,21.00
2014,08,26,09,27,20.90
2014,08,26,09,28,20.80
2014,08,26,09,29,20.70
2014,08,26,09,30,20.60
2014,08,26,09,31,20.50
2014,08,26,09,32,20.30
2014,08,26,09,33,20.20
2014,08,26,09,34,20.10
2014,08,26,09,35,20.00
2014,08,26,09,36,19.90
2014,08,26,09,37,19.80
2014,08,26,09,38,19.70
2014,08,26,09,39,19.60
2014,08,26,09,40,19.60
2014,08,26,09,41,19.50
2014,08,26,09,42,19.50
2014,08,26,09,43,19.50
2014,08,26,09,44,19.50
2014,08,26,09,45,19.50
2014,08,26,09,46,19.50
2014,08,26,09,47,19.50
2014,08,26,09,48,19.50
2014,08,26,09,49,19.40
2014,08,26,09,50,19.40
2014,08,26,09,51,19.30
2014,08,26,09,52,19.30
2014,08,26,09,53,19.30
2014,08,26,09,54,19.20
2014,08,26,09,55,19.20
2014,08,26,09,56,19.20
2014,08,26,09,57,19.20
2014,08,26,09,58,19.20
2014,08,26,09,59,19.20
2014,08,26,10,00,19.20
2014,08,26,10,01,19.20
2014,08,26,10,02,19.20
2014,08,26,10,03,19.10
2014,08,26,10,04,19.10
2014,08,26,10,05,19.00
2014,08,26,10,06,19.00
2014,08,26,10,07,18.90
2014,08,26,10,08,18.90
2014,08,26,10,09,18.90
2014,08,26,10,10,18.90
2014,08,26,10,11,18.90
2014,08,26,10,12,18.90
2014,08,26,10,13,19.00
2014,08,26,10,14,19.00
2014,08,26,10,15,19.00
2014,08,26,10,16,19.00
2014,08,26,10,17,19.00
2014,08,26,10,18,19.00
2014,08,26,10,19,19.00
2014,08,26,10,20,19.10
2014,08,26,10,21,19.10
2014,08,26,10,22,19.10
2014,08,26,10,23,19.20
2014,08,26,10,24,19.20
2014,08,26,10,25,19.20
2014,08,26,10,26,19.20
2014,08,26,10,27,19.30
2014,08,26,10,28,19.40
2014,08,26,10,29,19.40
2014,08,26,10,30,19.50
2014,08,26,10,31,19.60
2014,08,26,10,32,19.70
2014,08,26,10,33,19.70
2014,08,26,10,34,19.80
2014,08,26,10,35,19.80
2014,08,26,10,36,19.90
2014,08,26,10,37,20.00
2014,08,26,10,38,20.00
2014,08,26,10,39,20.10
2014,08,26,10,40,20.20
2014,08,26,10,41,20.30
2014,08,26,10,42,20.50
2014,08,26,10,43,20.60
2014,08,26,10,44,20.60
2014,08,26,10,45,20.70
2014,08,26,10,46,20.70
2014,08,26,10,47,20.70
2014,08,26,10,48,20.70
2014,08,26,10,49,20.70
2014,08,26,10,50,20.70
2014,08,26,10,51,20.70
2014,08,26,10,52,20.70
2014,08,26,10,53,20.70
2014,08,26,10,54,20.70
2014,08,26,10,55,20.70
2014,08,26,10,56,20.70
2014,08,26,10,57,20.70
2014,08,26,10,58,20.70
2014,08,26,10,59,20.80
2014,08,26,11,00,20.80
2014,08,26,11,01,20.90
2014,08,26,11,02,20.90
2014,08,26,11,03,20.90
2014,08,26,11,04,21.00
2014,08,26,11,05,21.00
2014,08,26,11,06,21.00
2014,08,26,11,07,21.00
2014,08,26,11,08,21.10
2014,08,26,11,09,21.20
2014,08,26,11,10,21.30
2014,08,26,11,11,21.40
2014,08,26,11,12,21.50
2014,08,26,11,13,21.50
2014,08,26,11,14,21.60
2014,08,26,11,15,21.70
2014,08,26,11,16,21.80
2014,08,26,11,17,21.90
2014,08,26,11,18,22.00
2014,08,26,11,19,22.10
2014,08,26,11,20,22.20
2014,08,26,11,21,22.30
2014,08,26,11,22,22.40
2014,08,26,11,23,22.50
2014,08,26,11,24,22.50
2014,08,26,11,25,22.60
2014,08,26,11,26,22.70
2014,08,26,11,27,22.80
2014,08,26,11,28,22.90
2014,08,26,11,29,23.00
2014,08,26,11,30,23.10
2014,08,26,11,31,23.20
2014,08,26,11,32,23.20
2014,08,26,11,33,23.30
2014,08,26,11,34,23.30
2014,08,26,11,35,23.40
2014,08,26,11,36,23.40
2014,08,26,11,37,23.30
2014,08,26,11,38,23.20
2014,08,26,11,39,23.10
2014,08,26,11,40,23.10
2014,08,26,11,41,23.10
2014,08,26,11,42,23.10
2014,08,26,11,43,23.10
2014,08,26,11,44,23.20
2014,08,26,11,45,23.20
2014,08,26,11,46,23.30
2014,08,26,11,47,23.30
2014,08,26,11,48,23.40
2014,08,26,11,49,23.40
2014,08,26,11,50,23.50
2014,08,26,11,51,23.60
2014,08,26,11,52,23.50
2014,08,26,11,53,23.60
2014,08,26,11,54,23.60
2014,08,26,11,55,23.60
2014,08,26,11,56,23.70
2014,08,26,11,57,23.70
2014,08,26,11,58,23.80
2014,08,26,11,59,23.80
2014,08,26,12,00,23.80
2014,08,26,12,01,23.80
2014,08,26,12,02,23.80
2014,08,26,12,03,23.80
2014,08,26,12,04,23.80
2014,08,26,12,05,23.90
2014,08,26,12,06,23.90
2014,08,26,12,07,23.90
2014,08,26,12,08,23.80
2014,08,26,12,09,23.70
2014,08,26,12,10,23.60
2014,08,26,12,11,23.60
2014,08,26,12,12,23.60
2014,08,26,12,13,23.60
2014,08,26,12,14,23.60
2014,08,26,12,15,23.60
2014,08,26,12,16,23.60
2014,08,26,12,17,23.50
2014,08,26,12,18,23.50
2014,08,26,12,19,23.50
2014,08,26,12,20,23.60
2014,08,26,12,21,23.70
2014,08,26,12,22,23.80
2014,08,26,12,23,23.80
2014,08,26,12,24,23.90
2014,08,26,12,25,23.90
2014,08,26,12,26,24.00
2014,08,26,12,27,24.00
2014,08,26,12,28,24.00
2014,08,26,12,29,24.00
2014,08,26,12,30,24.00
2014,08,26,12,31,24.00
2014,08,26,12,32,24.10
2014,08,26,12,33,24.10
2014,08,26,12,34,24.10
2014,08,26,12,35,24.10
2014,08,26,12,36,24.10
2014,08,26,12,37,24.10
2014,08,26,12,38,24.10
2014,08,26,12,39,24.10
2014,08,26,12,40,24.10
2014,08,26,12,41,24.20
2014,08,26,12,42,24.20
2014,08,26,12,43,24.20
2014,08,26,12,44,24.20
2014,08,26,12,45,24.20
2014,08,26,12,46,24.20
2014,08,26,12,47,24.20
2014,08,26,12,48,24.20
2014,08,26,12,49,24.30
2014,08,26,12,50,24.30
2014,08,26,12,51,24.30
2014,08,26,12,52,24.40
2014,08,26,12,53,24.40
2014,08,26,12,54,24.30
2014,08,26,12,55,24.30
2014,08,26,12,56,24.20
2014,08,26,12,57,24.20
2014,08,26,12,58,24.30
2014,08,26,12,59,24.30
2014,08,26,13,00,24.30
2014,08,26,13,01,24.30
2014,08,26,13,02,24.30
2014,08,26,13,03,24.30
2014,08,26,13,04,24.30
2014,08,26,13,05,24.30
2014,08,26,13,06,24.30
2014,08,26,13,07,24.40
2014,08,26,13,08,24.40
2014,08,26,13,09,24.40
2014,08,26,13,10,24.50
2014,08,26,13,11,24.50
2014,08,26,13,12,24.60
2014,08,26,13,13,24.60
2014,08,26,13,14,24.70
2014,08,26,13,15,24.70
2014,08,26,13,16,24.80
2014,08,26,13,17,24.80
2014,08,26,13,18,24.80
2014,08,26,13,19,24.80
2014,08,26,13,20,24.90
2014,08,26,13,21,24.90
2014,08,26,13,22,25.00
2014,08,26,13,23,25.10
2014,08,26,13,24,25.20
2014,08,26,13,25,25.30
2014,08,26,13,26,25.30
2014,08,26,13,27,25.20
2014,08,26,13,28,25.20
2014,08,26,13,29,25.30
2014,08,26,13,30,25.30
2014,08,26,13,31,25.30
2014,08,26,13,32,25.30
2014,08,26,13,33,25.30
2014,08,26,13,34,25.30
2014,08,26,13,35,25.30
2014,08,26,13,36,25.30
2014,08,26,13,37,25.30
2014,08,26,13,38,25.30
2014,08,26,13,39,25.30
2014,08,26,13,40,25.30
2014,08,26,13,41,25.40
2014,08,26,13,42,25.40
2014,08,26,13,43,25.50
2014,08,26,13,44,25.50
2014,08,26,13,45,25.50
2014,08,26,13,46,25.50
2014,08,26,13,47,25.50
2014,08,26,13,48,25.50
2014,08,26,13,49,25.50
2014,08,26,13,50,25.50
2014,08,26,13,51,25.50
2014,08,26,13,52,25.50
2014,08,26,13,53,25.50
2014,08,26,13,54,25.50
2014,08,26,13,55,25.50
2014,08,26,13,56,25.60
2014,08,26,13,57,25.60
2014,08,26,13,58,25.50
2014,08,26,13,59,25.50
2014,08,26,14,00,25.40
2014,08,26,14,01,25.30
2014,08,26,14,02,25.20
2014,08,26,14,03,25.00
2014,08,26,14,04,24.90
2014,08,26,14,05,24.90
2014,08,26,14,06,24.90
2014,08,26,14,07,25.00
2014,08,26,14,08,25.00
2014,08,26,14,09,25.00
2014,08,26,14,10,25.00
2014,08,26,14,11,25.00
2014,08,26,14,12,25.10
2014,08,26,14,13,25.10
2014,08,26,14,14,25.10
2014,08,26,14,15,25.00
2014,08,26,14,16,25.00
2014,08,26,14,17,25.00
2014,08,26,14,18,25.00
2014,08,26,14,19,25.00
2014,08,26,14,20,25.00
2014,08,26,14,21,25.10
2014,08,26,14,22,25.10
2014,08,26,14,23,25.10
2014,08,26,14,24,25.10
2014,08,26,14,25,25.10
2014,08,26,14,26,25.10
2014,08,26,14,27,25.10
2014,08,26,14,28,25.00
2014,08,26,14,29,25.00
2014,08,26,14,30,25.00
2014,08,26,14,31,25.10
2014,08,26,14,32,25.10
2014,08,26,14,33,25.10
2014,08,26,14,34,25.10
2014,08,26,14,35,25.00
2014,08,26,14,36,25.00
2014,08,26,14,37,25.00
2014,08,26,14,38,25.00
2014,08,26,14,39,25.10
2014,08,26,14,40,25.10
2014,08,26,14,41,25.20
2014,08,26,14,42,25.30
2014,08,26,14,43,25.40
2014,08,26,14,44,25.40
2014,08,26,14,45,25.40
2014,08,26,14,46,25.40
2014,08,26,14,47,25.40
2014,08,26,14,48,25.40
2014,08,26,14,49,25.30
2014,08,26,14,50,25.40
2014,08,26,14,51,25.40
2014,08,26,14,52,25.40
2014,08,26,14,53,25.40
2014,08,26,14,54,25.40
2014,08,26,14,55,25.40
2014,08,26,14,56,25.50
2014,08,26,14,57,25.50
2014,08,26,14,58,25.60
2014,08,26,14,59,25.60
2014,08,26,15,00,25.60
2014,08,26,15,01,25.70
2014,08,26,15,02,25.70
2014,08,26,15,03,25.80
2014,08,26,15,04,25.90
2014,08,26,15,05,26.00
2014,08,26,15,06,26.10
2014,08,26,15,07,26.00
2014,08,26,15,08,26.00
2014,08,26,15,09,25.90
2014,08,26,15,10,25.80
2014,08,26,15,11,25.80
2014,08,26,15,12,25.80
2014,08,26,15,13,25.70
2014,08,26,15,14,25.80
2014,08,26,15,15,25.80
2014,08,26,15,16,25.90
2014,08,26,15,17,25.90
2014,08,26,15,18,25.90
2014,08,26,15,19,25.90
2014,08,26,15,20,25.90
2014,08,26,15,21,25.80
2014,08,26,15,22,25.80
2014,08,26,15,23,25.80
2014,08,26,15,24,25.80
2014,08,26,15,25,25.80
2014,08,26,15,26,25.70
2014,08,26,15,27,25.70
2014,08,26,15,28,25.70
2014,08,26,15,29,25.70
2014,08,26,15,30,25.70
2014,08,26,15,31,25.60
2014,08,26,15,32,25.60
2014,08,26,15,33,25.60
2014,08,26,15,34,25.60
2014,08,26,15,35,25.70
2014,08,26,15,36,25.80
2014,08,26,15,37,25.80
2014,08,26,15,38,25.80
2014,08,26,15,39,25.90
2014,08,26,15,40,25.90
2014,08,26,15,41,25.90
2014,08,26,15,42,26.00
2014,08,26,15,43,26.00
2014,08,26,15,44,26.10
2014,08,26,15,45,26.10
2014,08,26,15,46,26.10
2014,08,26,15,47,26.10
2014,08,26,15,48,26.10
2014,08,26,15,49,26.10
2014,08,26,15,50,26.10
2014,08,26,15,51,26.10
2014,08,26,15,52,26.20
2014,08,26,15,53,26.20
2014,08,26,15,54,26.10
2014,08,26,15,55,26.00
2014,08,26,15,56,25.90
2014,08,26,15,57,25.70
2014,08,26,15,58,25.60
2014,08,26,15,59,25.60
2014,08,26,16,00,25.60
2014,08,26,16,01,25.60
2014,08,26,16,02,25.60
2014,08,26,16,03,25.60
2014,08,26,16,04,25.60
2014,08,26,16,05,25.70
2014,08,26,16,06,25.70
2014,08,26,16,07,25.60
2014,08,26,16,08,25.60
2014,08,26,16,09,25.60
2014,08,26,16,10,25.60
2014,08,26,16,11,25.60
2014,08,26,16,12,25.60
2014,08,26,16,13,25.50
2014,08,26,16,14,25.50
2014,08,26,16,15,25.50
2014,08,26,16,16,25.50
2014,08,26,16,17,25.50
2014,08,26,16,18,25.60
2014,08,26,16,19,25.50
2014,08,26,16,20,25.50
2014,08,26,16,21,25.50
2014,08,26,16,22,25.50
2014,08,26,16,23,25.50
2014,08,26,16,24,25.60
2014,08,26,16,25,25.60
2014,08,26,16,26,25.60
2014,08,26,16,27,25.60
2014,08,26,16,28,25.60
2014,08,26,16,29,25.70
2014,08,26,16,30,25.60
2014,08,26,16,31,25.60
2014,08,26,16,32,25.60
2014,08,26,16,33,25.70
2014,08,26,16,34,25.70
2014,08,26,16,35,25.70
2014,08,26,16,36,25.70
2014,08,26,16,37,25.80
2014,08,26,16,38,25.80
2014,08,26,16,39,25.80
2014,08,26,16,40,25.80
2014,08,26,16,41,25.80
2014,08,26,16,42,25.80
2014,08,26,16,43,25.70
2014,08,26,16,44,25.70
2014,08,26,16,45,25.70
2014,08,26,16,46,25.80
2014,08,26,16,47,25.80
2014,08,26,16,48,25.80
2014,08,26,16,49,25.70
2014,08,26,16,50,25.60
2014,08,26,16,51,25.50
2014,08,26,16,52,25.50
2014,08,26,16,53,25.50
2014,08,26,16,54,25.50
2014,08,26,16,55,25.60
2014,08,26,16,56,25.60
2014,08,26,16,57,25.70
2014,08,26,16,58,25.60
2014,08,26,16,59,25.50
2014,08,26,17,00,25.40
2014,08,26,17,01,25.40
2014,08,26,17,02,25.40
2014,08,26,17,03,25.30
2014,08,26,17,04,25.30
2014,08,26,17,05,25.30
2014,08,26,17,06,25.30
2014,08,26,17,07,25.30
2014,08,26,17,08,25.30
2014,08,26,17,09,25.30
2014,08,26,17,10,25.30
2014,08,26,17,11,25.30
2014,08,26,17,12,25.30
2014,08,26,17,13,25.40
2014,08,26,17,14,25.40
2014,08,26,17,15,25.40
2014,08,26,17,16,25.40
2014,08,26,17,17,25.40
2014,08,26,17,18,25.40
2014,08,26,17,19,25.40